| time (UTC) | temp F | wind direction | speed MPH | gust MPH | rain 1hr in | rain 24hr in | rain mn in | humidity % | barometer mb |
| 20260831042437 | 65 | 205 | 1.0 | 4.0 | 0.00 | 0.00 | 0.00 | 96 | 1019.1 |
| 20260831041931 | 65 | 204 | 1.0 | 5.0 | 0.00 | 0.00 | 0.00 | 96 | 1019.1 |
| 20260831040919 | 65 | 203 | 0.0 | 0.0 | 0.00 | 0.00 | 0.00 | 95 | 1019.1 |
| 20260831035907 | 65 | 227 | 1.0 | 4.0 | 0.00 | 0.00 | 0.00 | 95 | 1019.0 |
| 20260831035401 | 65 | 216 | 1.0 | 4.0 | 0.00 | 0.00 | 0.00 | 95 | 1019.1 |
| 20260831034855 | 65 | 218 | 0.0 | 4.0 | 0.00 | 0.00 | 0.00 | 95 | 1019.0 |
| 20260831034350 | 65 | 224 | 0.0 | 0.0 | 0.00 | 0.00 | 0.00 | 95 | 1018.9 |
| 20260831033844 | 65 | 202 | 0.0 | 1.0 | 0.00 | 0.00 | 0.00 | 95 | 1018.9 |
| 20260831033341 | 65 | 203 | 0.0 | 1.0 | 0.00 | 0.00 | 0.00 | 95 | 1018.8 |
| 20260831032841 | 65 | 191 | 0.0 | 1.0 | 0.00 | 0.00 | 0.00 | 95 | 1018.8 |
| 20260831032339 | 65 | 191 | 0.0 | 1.0 | 0.00 | 0.00 | 0.00 | 95 | 1018.8 |
| 20260831030839 | 65 | 161 | 0.0 | 0.0 | 0.00 | 0.00 | 0.00 | 95 | 1018.6 |
| 20260831030340 | 65 | 217 | 0.0 | 0.0 | 0.00 | 0.00 | 0.00 | 95 | 1018.6 |
| 20260831025840 | 65 | 217 | 0.0 | 0.0 | 0.00 | 0.00 | 0.00 | 95 | 1018.6 |
| 20260831025339 | 65 | 221 | 0.0 | 0.0 | 0.00 | 0.00 | 0.00 | 95 | 1018.6 |
| 20260831024839 | 65 | 201 | 0.0 | 0.0 | 0.00 | 0.00 | 0.00 | 95 | 1018.5 |
| 20260831024339 | 65 | 212 | 0.0 | 0.0 | 0.00 | 0.00 | 0.00 | 95 | 1018.6 |
| 20260831023839 | 66 | 212 | 0.0 | 1.0 | 0.00 | 0.00 | 0.00 | 95 | 1018.5 |
| 20260831023339 | 66 | 221 | 0.0 | 1.0 | 0.00 | 0.00 | 0.00 | 95 | 1018.5 |
| 20260831022840 | 66 | 245 | 0.0 | 2.0 | 0.00 | 0.00 | 0.00 | 95 | 1018.5 |
| 20260831022337 | 66 | 203 | 0.0 | 2.0 | 0.00 | 0.00 | 0.00 | 94 | 1018.5 |
| 20260831020835 | 66 | 236 | 0.0 | 0.0 | 0.00 | 0.00 | 0.00 | 94 | 1018.4 |
| 20260831020335 | 66 | 213 | 0.0 | 4.0 | 0.00 | 0.00 | 0.00 | 94 | 1018.4 |
| 20260831015833 | 66 | 228 | 0.0 | 4.0 | 0.00 | 0.00 | 0.00 | 94 | 1018.3 |
| 20260831015332 | 66 | 231 | 0.0 | 4.0 | 0.00 | 0.00 | 0.00 | 94 | 1018.4 |
| 20260831014831 | 67 | 218 | 0.0 | 6.0 | 0.00 | 0.00 | 0.00 | 94 | 1018.3 |
| 20260831013830 | 67 | 218 | 2.0 | 6.0 | 0.00 | 0.00 | 0.00 | 94 | 1018.2 |
| 20260831013329 | 67 | 0 | 1.0 | 6.0 | 0.00 | 0.00 | 0.00 | 94 | 1018.1 |
| 20260831011829 | 67 | 190 | 3.0 | 8.0 | 0.00 | 0.00 | 0.00 | 95 | 1018.0 |
| 20260831010830 | 67 | 209 | 2.0 | 6.0 | 0.00 | 0.00 | 0.00 | 94 | 1017.9 |
| 20260831010329 | 66 | 219 | 4.0 | 8.0 | 0.00 | 0.00 | 0.00 | 94 | 1017.9 |
| 20260831005829 | 66 | 221 | 3.0 | 8.0 | 0.00 | 0.00 | 0.00 | 94 | 1017.8 |
| 20260831005329 | 66 | 230 | 3.0 | 5.0 | 0.00 | 0.00 | 0.00 | 94 | 1017.9 |
| 20260831004831 | 66 | 205 | 2.0 | 5.0 | 0.00 | 0.00 | 0.00 | 94 | 1017.9 |
| 20260831004327 | 66 | 0 | 1.0 | 4.0 | 0.00 | 0.00 | 0.00 | 94 | 1017.9 |
| 20260831003828 | 66 | 221 | 1.0 | 4.0 | 0.00 | 0.00 | 0.00 | 94 | 1017.8 |
| 20260831003330 | 66 | 205 | 0.0 | 2.0 | 0.00 | 0.00 | 0.00 | 94 | 1017.7 |
| 20260831002827 | 66 | 223 | 0.0 | 3.0 | 0.00 | 0.00 | 0.00 | 94 | 1017.8 |
| 20260831002327 | 66 | 221 | 0.0 | 3.0 | 0.00 | 0.00 | 0.00 | 93 | 1017.8 |
| 20260831000815 | 67 | 217 | 0.0 | 3.0 | 0.00 | 0.00 | 0.00 | 93 | 1017.3 |
| 20260830235808 | 67 | 218 | 0.0 | 1.0 | 0.00 | 0.00 | 0.00 | 93 | 1017.5 |
| 20260830234804 | 67 | 222 | 0.0 | 0.0 | 0.00 | 0.00 | 0.00 | 93 | 1017.4 |
| 20260830234303 | 67 | 220 | 1.0 | 4.0 | 0.00 | 0.00 | 0.00 | 93 | 1017.3 |
| 20260830233301 | 67 | 232 | 0.0 | 3.0 | 0.00 | 0.00 | 0.00 | 92 | 1017.2 |
| 20260830231759 | 67 | 182 | 2.0 | 8.0 | 0.00 | 0.00 | 0.00 | 92 | 1017.0 |
| 20260830230757 | 68 | 196 | 3.0 | 7.0 | 0.00 | 0.00 | 0.00 | 91 | 1017.1 |
| 20260830225257 | 68 | 182 | 1.0 | 8.0 | 0.00 | 0.00 | 0.00 | 91 | 1017.0 |
| 20260830224757 | 68 | 182 | 1.0 | 8.0 | 0.00 | 0.00 | 0.00 | 91 | 1017.1 |
| 20260830224255 | 68 | 252 | 2.0 | 6.0 | 0.00 | 0.00 | 0.00 | 91 | 1017.1 |
| 20260830223756 | 68 | 220 | 3.0 | 7.0 | 0.00 | 0.00 | 0.00 | 90 | 1017.1 |
| 20260830223255 | 68 | 221 | 4.0 | 8.0 | 0.00 | 0.00 | 0.00 | 90 | 1017.1 |
| 20260830222756 | 68 | 202 | 4.0 | 8.0 | 0.00 | 0.00 | 0.00 | 90 | 1017.1 |
| 20260830222256 | 68 | 205 | 3.0 | 7.0 | 0.00 | 0.00 | 0.00 | 89 | 1017.0 |
| 20260830221756 | 68 | 228 | 2.0 | 8.0 | 0.00 | 0.00 | 0.00 | 89 | 1017.0 |
| 20260830221255 | 68 | 186 | 2.0 | 8.0 | 0.00 | 0.00 | 0.00 | 89 | 1017.0 |
| 20260830220756 | 68 | 161 | 3.0 | 7.0 | 0.00 | 0.00 | 0.00 | 89 | 1017.0 |
| 20260830220255 | 68 | 163 | 4.0 | 9.0 | 0.00 | 0.00 | 0.00 | 88 | 1017.0 |
| 20260830215755 | 68 | 188 | 4.0 | 9.0 | 0.00 | 0.00 | 0.00 | 88 | 1016.9 |
| 20260830215251 | 68 | 205 | 3.0 | 8.0 | 0.00 | 0.00 | 0.00 | 87 | 1016.9 |
| 20260830214751 | 68 | 197 | 3.0 | 8.0 | 0.00 | 0.00 | 0.00 | 87 | 1016.8 |
| 20260830214251 | 68 | 212 | 3.0 | 8.0 | 0.00 | 0.00 | 0.00 | 87 | 1016.8 |
| 20260830213251 | 68 | 205 | 2.0 | 9.0 | 0.00 | 0.00 | 0.00 | 86 | 1016.8 |
| 20260830212251 | 68 | 175 | 4.0 | 9.0 | 0.00 | 0.00 | 0.00 | 85 | 1016.9 |
| 20260830211751 | 68 | 241 | 3.0 | 9.0 | 0.00 | 0.00 | 0.00 | 85 | 1016.8 |
| 20260830211252 | 68 | 223 | 2.0 | 8.0 | 0.00 | 0.00 | 0.00 | 85 | 1016.9 |
| 20260830210747 | 68 | 201 | 1.0 | 5.0 | 0.00 | 0.00 | 0.00 | 85 | 1016.8 |
| 20260830210247 | 68 | 205 | 2.0 | 9.0 | 0.00 | 0.00 | 0.00 | 85 | 1016.9 |
| 20260830205747 | 68 | 207 | 3.0 | 9.0 | 0.00 | 0.00 | 0.00 | 85 | 1016.9 |
| 20260830205247 | 69 | 183 | 2.0 | 6.0 | 0.00 | 0.00 | 0.00 | 87 | 1016.9 |
| 20260830204246 | 68 | 167 | 3.0 | 8.0 | 0.00 | 0.00 | 0.00 | 88 | 1016.6 |
| 20260830203747 | 68 | 183 | 2.0 | 6.0 | 0.00 | 0.00 | 0.00 | 88 | 1016.7 |
| 20260830203247 | 68 | 149 | 1.0 | 5.0 | 0.00 | 0.00 | 0.00 | 89 | 1016.8 |
| 20260830202747 | 68 | 167 | 0.0 | 4.0 | 0.00 | 0.00 | 0.00 | 89 | 1016.8 |
| 20260830202247 | 68 | 215 | 1.0 | 5.0 | 0.00 | 0.00 | 0.00 | 89 | 1016.8 |
| 20260830201247 | 68 | 213 | 1.0 | 4.0 | 0.00 | 0.00 | 0.00 | 89 | 1016.7 |
| 20260830200747 | 68 | 189 | 1.0 | 4.0 | 0.00 | 0.00 | 0.00 | 89 | 1016.8 |
| 20260830200247 | 68 | 189 | 1.0 | 3.0 | 0.00 | 0.00 | 0.00 | 89 | 1016.8 |
| 20260830195746 | 68 | 206 | 1.0 | 4.0 | 0.00 | 0.00 | 0.00 | 89 | 1016.9 |
| 20260830195245 | 68 | 191 | 0.0 | 4.0 | 0.00 | 0.00 | 0.00 | 89 | 1017.0 |
| 20260830194741 | 68 | 220 | 0.0 | 4.0 | 0.00 | 0.00 | 0.00 | 89 | 1016.9 |
| 20260830194241 | 68 | 217 | 3.0 | 8.0 | 0.00 | 0.00 | 0.00 | 90 | 1016.8 |
| 20260830193741 | 67 | 196 | 4.0 | 8.0 | 0.00 | 0.00 | 0.00 | 90 | 1016.8 |
| 20260830193241 | 67 | 184 | 4.0 | 9.0 | 0.00 | 0.00 | 0.00 | 90 | 1016.9 |
| 20260830192740 | 67 | 186 | 4.0 | 9.0 | 0.00 | 0.00 | 0.00 | 91 | 1017.0 |
| 20260830192233 | 67 | 163 | 4.0 | 9.0 | 0.00 | 0.00 | 0.00 | 91 | 1017.0 |
| 20260830191729 | 67 | 227 | 4.0 | 8.0 | 0.00 | 0.00 | 0.00 | 92 | 1017.0 |
| 20260830191227 | 66 | 151 | 4.0 | 9.0 | 0.00 | 0.00 | 0.00 | 92 | 1017.1 |
| 20260830190727 | 66 | 217 | 4.0 | 9.0 | 0.00 | 0.00 | 0.00 | 92 | 1017.1 |
| 20260830190226 | 66 | 0 | 4.0 | 9.0 | 0.00 | 0.00 | 0.00 | 92 | 1017.2 |
| 20260830185725 | 65 | 167 | 5.0 | 9.0 | 0.00 | 0.00 | 0.00 | 92 | 1017.3 |
| 20260830185224 | 65 | 155 | 4.0 | 9.0 | 0.00 | 0.00 | 0.00 | 92 | 1017.2 |
| 20260830184721 | 65 | 226 | 2.0 | 8.0 | 0.00 | 0.00 | 0.00 | 93 | 1017.3 |
| 20260830183718 | 65 | 217 | 1.0 | 6.0 | 0.00 | 0.00 | 0.00 | 92 | 1017.4 |
| 20260830183219 | 65 | 184 | 0.0 | 1.0 | 0.00 | 0.00 | 0.00 | 93 | 1017.4 |
| 20260830182719 | 65 | 0 | 0.0 | 1.0 | 0.00 | 0.00 | 0.00 | 93 | 1017.5 |
| 20260830182218 | 65 | 194 | 1.0 | 5.0 | 0.00 | 0.00 | 0.00 | 92 | 1017.7 |
| 20260830181717 | 65 | 215 | 2.0 | 6.0 | 0.00 | 0.00 | 0.00 | 92 | 1017.7 |
| 20260830181216 | 65 | 227 | 1.0 | 6.0 | 0.00 | 0.00 | 0.00 | 92 | 1017.8 |
| 20260830180717 | 65 | 224 | 0.0 | 5.0 | 0.00 | 0.00 | 0.00 | 92 | 1017.7 |
| 20260830180217 | 65 | 223 | 0.0 | 0.0 | 0.00 | 0.00 | 0.00 | 92 | 1017.9 |
| 20260830175717 | 66 | 346 | 0.0 | 0.0 | 0.00 | 0.00 | 0.00 | 92 | 1018.0 |
| 20260830174702 | 66 | 355 | 1.0 | 4.0 | 0.00 | 0.00 | 0.00 | 91 | 1017.9 |
| 20260830173650 | 66 | 355 | 0.0 | 2.0 | 0.00 | 0.00 | 0.00 | 91 | 1018.0 |
| 20260830173144 | 67 | 355 | 0.0 | 3.0 | 0.00 | 0.00 | 0.00 | 90 | 1018.0 |
| 20260830172645 | 67 | 350 | 0.0 | 3.0 | 0.00 | 0.00 | 0.00 | 90 | 1018.1 |
| 20260830172142 | 67 | 355 | 0.0 | 4.0 | 0.00 | 0.00 | 0.00 | 89 | 1018.1 |
| 20260830171641 | 67 | 338 | 0.0 | 4.0 | 0.00 | 0.00 | 0.00 | 88 | 1018.1 |
| 20260830171141 | 67 | 309 | 0.0 | 2.0 | 0.00 | 0.00 | 0.00 | 88 | 1018.1 |
| 20260830170144 | 68 | 5 | 1.0 | 10.0 | 0.00 | 0.00 | 0.00 | 87 | 1017.9 |
| 20260830165138 | 68 | 205 | 1.0 | 5.0 | 0.00 | 0.00 | 0.00 | 87 | 1018.1 |
| 20260830164639 | 69 | 188 | 1.0 | 6.0 | 0.00 | 0.00 | 0.00 | 86 | 1018.0 |
| 20260830164138 | 69 | 236 | 1.0 | 6.0 | 0.00 | 0.00 | 0.00 | 86 | 1018.0 |
| 20260830163139 | 69 | 33 | 1.0 | 4.0 | 0.00 | 0.00 | 0.00 | 87 | 1017.9 |
| 20260830162638 | 69 | 219 | 1.0 | 4.0 | 0.00 | 0.00 | 0.00 | 86 | 1017.9 |
| 20260830162139 | 69 | 232 | 0.0 | 1.0 | 0.00 | 0.00 | 0.00 | 87 | 1017.8 |
| 20260830161639 | 69 | 168 | 0.0 | 1.0 | 0.00 | 0.00 | 0.00 | 88 | 1017.7 |
| 20260830160633 | 69 | 313 | 0.0 | 2.0 | 0.00 | 0.00 | 0.00 | 89 | 1017.8 |
| 20260830160130 | 69 | 254 | 0.0 | 2.0 | 0.00 | 0.00 | 0.00 | 89 | 1017.8 |
| 20260830155630 | 69 | 324 | 0.0 | 1.0 | 0.00 | 0.00 | 0.00 | 90 | 1017.9 |
| 20260830155124 | 69 | 276 | 0.0 | 1.0 | 0.00 | 0.00 | 0.00 | 89 | 1018.0 |
| 20260830154619 | 69 | 265 | 0.0 | 4.0 | 0.00 | 0.00 | 0.00 | 90 | 1018.1 |
| 20260830154112 | 68 | 186 | 2.0 | 6.0 | 0.00 | 0.00 | 0.00 | 90 | 1018.1 |
| 20260830153606 | 68 | 200 | 2.0 | 7.0 | 0.00 | 0.00 | 0.00 | 91 | 1018.0 |
| 20260830153100 | 68 | 236 | 1.0 | 7.0 | 0.00 | 0.00 | 0.00 | 92 | 1018.1 |
| 20260830152554 | 68 | 231 | 1.0 | 5.0 | 0.00 | 0.00 | 0.00 | 93 | 1018.1 |
| 20260830152048 | 68 | 259 | 2.0 | 9.0 | 0.00 | 0.00 | 0.00 | 93 | 1018.1 |
| 20260830151543 | 68 | 212 | 1.0 | 9.0 | 0.00 | 0.00 | 0.00 | 93 | 1018.1 |
| 20260830151036 | 68 | 212 | 0.0 | 7.0 | 0.00 | 0.00 | 0.00 | 94 | 1018.1 |
| 20260830150530 | 67 | 239 | 2.0 | 5.0 | 0.00 | 0.00 | 0.00 | 94 | 1018.2 |
| 20260830150024 | 67 | 231 | 3.0 | 8.0 | 0.00 | 0.00 | 0.00 | 93 | 1018.2 |
| 20260830145520 | 68 | 180 | 4.0 | 8.0 | 0.00 | 0.00 | 0.00 | 93 | 1018.2 |
| 20260830145012 | 68 | 156 | 3.0 | 7.0 | 0.00 | 0.00 | 0.00 | 94 | 1018.2 |
| 20260830144506 | 68 | 182 | 2.0 | 6.0 | 0.00 | 0.00 | 0.00 | 93 | 1018.1 |
| 20260830144000 | 67 | 178 | 0.0 | 4.0 | 0.00 | 0.00 | 0.00 | 94 | 1018.2 |
| 20260830143455 | 67 | 0 | 1.0 | 5.0 | 0.00 | 0.00 | 0.00 | 93 | 1018.3 |
| 20260830142948 | 67 | 161 | 3.0 | 8.0 | 0.00 | 0.00 | 0.00 | 93 | 1018.3 |
| 20260830142442 | 67 | 219 | 4.0 | 8.0 | 0.00 | 0.00 | 0.00 | 93 | 1018.3 |
| 20260830141936 | 67 | 196 | 2.0 | 8.0 | 0.00 | 0.00 | 0.00 | 93 | 1018.2 |
| 20260830141430 | 67 | 220 | 0.0 | 0.0 | 0.00 | 0.00 | 0.00 | 93 | 1018.2 |
| 20260830140924 | 67 | 338 | 0.0 | 0.0 | 0.00 | 0.00 | 0.00 | 93 | 1018.0 |
| 20260830140418 | 67 | 0 | 0.0 | 0.0 | 0.00 | 0.00 | 0.00 | 92 | 1017.8 |
| 20260830135912 | 67 | 347 | 0.0 | 1.0 | 0.00 | 0.00 | 0.00 | 92 | 1017.8 |
| 20260830135406 | 67 | 355 | 0.0 | 3.0 | 0.00 | 0.00 | 0.00 | 92 | 1017.8 |
| 20260830134900 | 67 | 12 | 0.0 | 3.0 | 0.00 | 0.00 | 0.00 | 92 | 1017.9 |
| 20260830134354 | 67 | 355 | 0.0 | 5.0 | 0.00 | 0.00 | 0.00 | 92 | 1017.8 |
| 20260830133848 | 67 | 355 | 1.0 | 7.0 | 0.00 | 0.00 | 0.00 | 92 | 1017.8 |
| 20260830133342 | 68 | 0 | 2.0 | 8.0 | 0.00 | 0.00 | 0.00 | 92 | 1017.8 |
| 20260830132836 | 68 | 198 | 2.0 | 9.0 | 0.00 | 0.00 | 0.00 | 92 | 1018.0 |
| 20260830131825 | 68 | 219 | 4.0 | 10.0 | 0.00 | 0.00 | 0.00 | 92 | 1018.0 |
| 20260830131318 | 68 | 0 | 4.0 | 10.0 | 0.00 | 0.00 | 0.00 | 92 | 1018.0 |
| 20260830130306 | 68 | 193 | 2.0 | 9.0 | 0.00 | 0.00 | 0.00 | 92 | 1018.0 |
| 20260830125800 | 68 | 168 | 1.0 | 5.0 | 0.00 | 0.00 | 0.00 | 92 | 1018.1 |
| 20260830125255 | 68 | 179 | 2.0 | 5.0 | 0.00 | 0.00 | 0.00 | 92 | 1017.9 |
| 20260830124748 | 68 | 225 | 1.0 | 5.0 | 0.00 | 0.00 | 0.00 | 92 | 1017.9 |
| 20260830124242 | 68 | 211 | 0.0 | 2.0 | 0.00 | 0.00 | 0.00 | 92 | 1017.9 |
| 20260830123736 | 68 | 210 | 0.0 | 5.0 | 0.00 | 0.00 | 0.00 | 92 | 1018.0 |
| 20260830123231 | 68 | 244 | 1.0 | 5.0 | 0.00 | 0.00 | 0.00 | 92 | 1017.9 |
| 20260830122724 | 68 | 219 | 1.0 | 6.0 | 0.00 | 0.00 | 0.00 | 92 | 1017.9 |
| 20260830122221 | 68 | 215 | 1.0 | 6.0 | 0.00 | 0.00 | 0.00 | 92 | 1017.8 |
| 20260830121720 | 67 | 175 | 2.0 | 8.0 | 0.00 | 0.00 | 0.00 | 92 | 1017.8 |
| 20260830121220 | 67 | 244 | 4.0 | 11.0 | 0.00 | 0.00 | 0.00 | 92 | 1017.9 |
| 20260830120720 | 67 | 234 | 4.0 | 11.0 | 0.00 | 0.00 | 0.00 | 92 | 1017.9 |
| 20260830120221 | 67 | 207 | 5.0 | 11.0 | 0.00 | 0.00 | 0.00 | 92 | 1017.9 |
| 20260830115721 | 67 | 222 | 5.0 | 10.0 | 0.00 | 0.00 | 0.00 | 91 | 1017.8 |
| 20260830115220 | 67 | 0 | 3.0 | 10.0 | 0.00 | 0.00 | 0.00 | 91 | 1017.9 |
| 20260830114719 | 67 | 0 | 3.0 | 11.0 | 0.00 | 0.00 | 0.00 | 91 | 1017.7 |
| 20260830114218 | 67 | 215 | 5.0 | 11.0 | 0.00 | 0.00 | 0.00 | 91 | 1017.8 |
| 20260830113719 | 67 | 0 | 6.0 | 11.0 | 0.00 | 0.00 | 0.00 | 91 | 1017.9 |
| 20260830113220 | 0 | 0.0 | 0.0 | 0.00 | 0.00 | 0.00 | 1018.0 | ||
| 20260830112125 | 0 | 0.0 | 0.0 | 0.00 | 0.00 | 0.00 | 1017.9 | ||
| 20260830110520 | 0 | 0.0 | 0.0 | 0.00 | 0.00 | 0.00 | 1017.9 | ||
| 20260830105930 | 0 | 0.0 | 0.0 | 0.00 | 0.00 | 0.00 | 1017.8 | ||
| 20260830105420 | 0 | 0.0 | 0.0 | 0.00 | 0.00 | 0.00 | 1017.6 | ||
| 20260830104323 | 0 | 0.0 | 0.0 | 0.00 | 0.00 | 0.00 | 1017.8 | ||
| 20260830103822 | 0 | 0.0 | 0.0 | 0.00 | 0.00 | 0.00 | 1017.9 | ||
| 20260830103322 | 0 | 0.0 | 0.0 | 0.00 | 0.00 | 0.00 | 1017.8 | ||
| 20260830102822 | 0 | 0.0 | 0.0 | 0.00 | 0.00 | 0.00 | 1017.8 | ||
| 20260830102322 | 0 | 0.0 | 0.0 | 0.00 | 0.00 | 0.00 | 1017.8 | ||
| 20260830101822 | 0 | 0.0 | 0.0 | 0.00 | 0.00 | 0.00 | 1017.7 | ||
| 20260830101322 | 0 | 0.0 | 0.0 | 0.00 | 0.00 | 0.00 | 1017.8 | ||
| 20260830100730 | 0 | 0.0 | 0.0 | 0.00 | 0.00 | 0.00 | 1017.8 | ||
| 20260830095226 | 0 | 0.0 | 0.0 | 0.00 | 0.00 | 0.00 | 1017.7 | ||
| 20260830094702 | 0 | 0.0 | 0.0 | 0.00 | 0.00 | 0.00 | 1017.8 | ||
| 20260830094111 | 0 | 0.0 | 0.0 | 0.00 | 0.00 | 0.00 | 1017.8 | ||
| 20260830093516 | 0 | 0.0 | 0.0 | 0.00 | 0.00 | 0.00 | 1017.8 | ||
| 20260830092922 | 0 | 0.0 | 0.0 | 0.00 | 0.00 | 0.00 | 1017.9 | ||
| 20260830092414 | 0 | 0.0 | 0.0 | 0.00 | 0.00 | 0.00 | 1017.9 | ||
| 20260830091826 | 0 | 0.0 | 0.0 | 0.00 | 0.00 | 0.00 | 1017.9 | ||
| 20260830091323 | 0 | 0.0 | 0.0 | 0.00 | 0.00 | 0.00 | 1017.9 | ||
| 20260830090322 | 0 | 0.0 | 0.0 | 0.00 | 0.00 | 0.00 | 1017.7 | ||
| 20260830084822 | 0 | 0.0 | 0.0 | 0.00 | 0.00 | 0.00 | 1017.7 | ||
| 20260830084321 | 0 | 0.0 | 0.0 | 0.00 | 0.00 | 0.00 | 1017.7 | ||
| 20260830082726 | 0 | 0.0 | 0.0 | 0.00 | 0.00 | 0.00 | 1017.8 | ||
| 20260830082223 | 0 | 0.0 | 0.0 | 0.00 | 0.00 | 0.00 | 1017.8 | ||
| 20260830081720 | 70 | 0.0 | 0.0 | 0.00 | 0.00 | 0.00 | 86 | 1017.9 | |
| 20260830080612 | 70 | 182 | 6.0 | 9.0 | 0.00 | 0.00 | 0.00 | 86 | 1017.8 |
| 20260830080106 | 70 | 182 | 5.0 | 9.0 | 0.00 | 0.00 | 0.00 | 86 | 1017.8 |
| 20260830075606 | 70 | 178 | 6.0 | 9.0 | 0.00 | 0.00 | 0.00 | 86 | 1017.9 |
| 20260830075102 | 70 | 0 | 6.0 | 9.0 | 0.00 | 0.00 | 0.00 | 85 | 1017.8 |
| 20260830074600 | 70 | 157 | 6.0 | 11.0 | 0.00 | 0.00 | 0.00 | 85 | 1017.9 |
| 20260830074100 | 70 | 182 | 6.0 | 11.0 | 0.00 | 0.00 | 0.00 | 85 | 1017.9 |
| 20260830073558 | 70 | 168 | 5.0 | 11.0 | 0.00 | 0.00 | 0.00 | 85 | 1017.9 |
| 20260830073058 | 70 | 166 | 5.0 | 9.0 | 0.00 | 0.00 | 0.00 | 85 | 1017.9 |
| 20260830072555 | 70 | 186 | 5.0 | 9.0 | 0.00 | 0.00 | 0.00 | 84 | 1017.9 |
| 20260830072054 | 70 | 165 | 5.0 | 9.0 | 0.00 | 0.00 | 0.00 | 84 | 1017.8 |
| 20260830071050 | 70 | 167 | 5.0 | 8.0 | 0.00 | 0.00 | 0.00 | 83 | 1017.8 |
| 20260830070550 | 70 | 183 | 6.0 | 8.0 | 0.00 | 0.00 | 0.00 | 83 | 1017.8 |
| 20260830065550 | 70 | 207 | 6.0 | 10.0 | 0.00 | 0.00 | 0.00 | 84 | 1017.7 |
| 20260830065050 | 70 | 210 | 6.0 | 10.0 | 0.00 | 0.00 | 0.00 | 84 | 1017.8 |
| 20260830064550 | 70 | 173 | 4.0 | 9.0 | 0.00 | 0.00 | 0.00 | 85 | 1017.9 |
| 20260830064048 | 70 | 150 | 4.0 | 8.0 | 0.00 | 0.00 | 0.00 | 84 | 1017.8 |
| 20260830063548 | 70 | 173 | 5.0 | 9.0 | 0.00 | 0.00 | 0.00 | 83 | 1017.9 |
| 20260830063046 | 70 | 217 | 5.0 | 9.0 | 0.00 | 0.00 | 0.00 | 83 | 1017.9 |
| 20260830062545 | 70 | 203 | 5.0 | 9.0 | 0.00 | 0.00 | 0.00 | 83 | 1017.9 |
| 20260830062046 | 70 | 211 | 5.0 | 10.0 | 0.00 | 0.00 | 0.00 | 83 | 1017.9 |
| 20260830061546 | 70 | 192 | 5.0 | 10.0 | 0.00 | 0.00 | 0.00 | 82 | 1017.9 |
| 20260830061043 | 70 | 186 | 4.0 | 8.0 | 0.00 | 0.00 | 0.00 | 81 | 1018.0 |
| 20260830060545 | 70 | 156 | 4.0 | 8.0 | 0.00 | 0.00 | 0.00 | 79 | 1018.0 |
| 20260830060044 | 70 | 200 | 3.0 | 8.0 | 0.00 | 0.00 | 0.00 | 78 | 1018.0 |
| 20260830055542 | 70 | 220 | 3.0 | 6.0 | 0.00 | 0.00 | 0.00 | 78 | 1018.1 |
| 20260830055041 | 70 | 230 | 2.0 | 7.0 | 0.00 | 0.00 | 0.00 | 78 | 1018.1 |
| 20260830054541 | 70 | 215 | 2.0 | 7.0 | 0.00 | 0.00 | 0.00 | 78 | 1018.1 |
| 20260830054041 | 70 | 217 | 3.0 | 9.0 | 0.00 | 0.00 | 0.00 | 78 | 1018.1 |
| 20260830053535 | 70 | 176 | 4.0 | 9.0 | 0.00 | 0.00 | 0.00 | 78 | 1018.1 |
| 20260830053029 | 70 | 186 | 3.0 | 8.0 | 0.00 | 0.00 | 0.00 | 78 | 1018.1 |
| 20260830052523 | 70 | 198 | 3.0 | 9.0 | 0.00 | 0.00 | 0.00 | 78 | 1018.2 |
| 20260830052017 | 70 | 201 | 3.0 | 9.0 | 0.00 | 0.00 | 0.00 | 77 | 1018.2 |
| 20260830051512 | 70 | 229 | 3.0 | 7.0 | 0.00 | 0.00 | 0.00 | 77 | 1018.2 |
| 20260830051005 | 70 | 234 | 4.0 | 7.0 | 0.00 | 0.00 | 0.00 | 77 | 1018.2 |
| 20260830050500 | 70 | 223 | 3.0 | 8.0 | 0.00 | 0.00 | 0.00 | 77 | 1018.2 |
| 20260830045953 | 70 | 218 | 2.0 | 8.0 | 0.00 | 0.00 | 0.00 | 76 | 1018.1 |
| 20260830045448 | 70 | 184 | 2.0 | 6.0 | 0.00 | 0.00 | 0.00 | 76 | 1018.1 |
| 20260830044941 | 70 | 194 | 3.0 | 6.0 | 0.00 | 0.00 | 0.00 | 76 | 1018.2 |
| 20260830044435 | 70 | 205 | 4.0 | 7.0 | 0.00 | 0.00 | 0.00 | 75 | 1018.2 |
| 20260830043929 | 70 | 176 | 4.0 | 11.0 | 0.00 | 0.00 | 0.00 | 76 | 1018.1 |
| 20260830042917 | 70 | 167 | 4.0 | 9.0 | 0.00 | 0.00 | 0.00 | 76 | 1018.1 |